Location: Newark
(7.1028°S, 35.3258°W)
Time: 15:32:22
(UTC+00:00)

deb Explorer IX - Pass Details

Date: 25 February 2020
Orbit: 547 x 1100 km, 38.8° (Epoch: 31 March)

Event Time Altitude Azimuth Distance (km) Brightness Sun altitude
Exits shadow 07:33:10 - 236° (SW) 3,220 ? -13.8°
Reaches altitude 10° 07:34:21 10° 237° (WSW) 2,805 ? -13.5°
Maximum altitude 07:41:05 65° 318° (NW) 1,012 ? -11.9°
Drops below altitude 10° 07:46:52 10° 39° (NE) 2,423 ? -10.5°
Sets 07:49:12 0° 42° (NE) 3,267 ? -9.9°
